Princeton, MN

10:54 AM CST on November 21, 2019 (GMT -0600)
Princeton Municipal

Weather History for KPNM - August, 2019

Change the Weather History Date:

Friday, August 30, 2019

  Actual Average Record
Temperature  
Mean Temperature 58 °F -  
Max Temperature 73 °F 76 °F 89 °F (2010)
Min Temperature 44 °F 53 °F 42 °F (2003)
Degree Days  
Heating Degree Days 6    
Growing Degree Days 8 (Base 50)    
Moisture  
Dew Point 47 °F    
Average Humidity 71    
Maximum Humidity 100    
Minimum Humidity 36    
Precipitation  
Precipitation 0.00 in - - ()
Sea Level Pressure  
Sea Level Pressure 30.16 in    
Wind  
Wind Speed 2 mph (WNW)    
Max Wind Speed 13 mph    
Max Gust Speed 9 mph    
Visibility 9 miles    
Events      
Averages and records for this station are not official NWS values.
T = Trace of Precipitation, MM = Missing Value Source: NWS Daily Summary

Daily Weather History Graph

Daily Weather History Graph

Search for Another Location

Airport or City:

Astronomy

Aug. 30, 2019 Rise Set
Actual Time 6:33 AM CDT 7:56 PM CDT
Civil Twilight 6:02 AM CDT 8:26 PM CDT
Nautical Twilight 5:24 AM CDT 9:04 PM CDT
Astronomical Twilight 4:45 AM CDT 9:43 PM CDT
Moon 6:31 AM CDT (8/30) 8:33 PM CDT (8/30)
Length of Visible Light 14h 24m
Length of Day
13h 23m
New Moon, 0% of the Moon is Illuminated
Aug 30
New Moon
Sep 5
First Quarter
Sep 13
Full
Sep 21
Last Quarter
Sep 28
New

Hourly Weather History & Observations

Time (CDT) Temp. Dew Point Humidity Pressure Visibility Wind Dir Wind Speed Gust Speed Precip Events Conditions
12:19 AM 53.6 °F 48.2 °F 82% 30.05 in 10.0 mi West 4.6 mph - N/A   Clear
12:37 AM 53.6 °F 48.2 °F 82% 30.05 in 10.0 mi Calm Calm - N/A   Clear
12:55 AM 51.8 °F 48.2 °F 88% 30.05 in 10.0 mi Calm Calm - N/A   Clear
12:56 AM 51.8 °F 48.2 °F 88% 30.05 in 10.0 mi Calm Calm - N/A   Clear
1:15 AM 50.0 °F 46.4 °F 87% 30.05 in 10.0 mi Calm Calm - N/A   Clear
1:16 AM 50.0 °F 48.2 °F 94% 30.05 in 10.0 mi Calm Calm - N/A   Clear
1:35 AM 50.0 °F 46.4 °F 87% 30.05 in 10.0 mi Calm Calm - N/A   Clear
1:58 AM 48.2 °F 46.4 °F 93% 30.05 in 10.0 mi Calm Calm - N/A   Clear
2:16 AM 48.2 °F 48.2 °F 100% 30.05 in 10.0 mi Calm Calm - N/A   Clear
2:35 AM 48.2 °F 48.2 °F 100% 30.05 in 10.0 mi Calm Calm - N/A   Clear
2:36 AM 48.2 °F 48.2 °F 100% 30.05 in 10.0 mi Calm Calm - N/A   Clear
2:55 AM 48.2 °F 46.4 °F 93% 30.05 in 10.0 mi Calm Calm - N/A   Clear
3:19 AM 46.4 °F 46.4 °F 100% 30.06 in 10.0 mi Calm Calm - N/A   Clear
3:36 AM 46.4 °F 46.4 °F 100% 30.07 in 10.0 mi Calm Calm - N/A   Clear
3:55 AM 46.4 °F 44.6 °F 93% 30.09 in 10.0 mi Calm Calm - N/A   Clear
3:56 AM 46.4 °F 44.6 °F 93% 30.09 in 10.0 mi Calm Calm - N/A   Clear
4:15 AM 46.4 °F 44.6 °F 93% 30.10 in 10.0 mi Calm Calm - N/A   Clear
4:16 AM 46.4 °F 44.6 °F 93% 30.10 in 10.0 mi Calm Calm - N/A   Clear
4:35 AM 44.6 °F 44.6 °F 100% 30.10 in 4.0 mi Calm Calm - N/A   Clear
4:40 AM 44.6 °F 42.8 °F 93% 30.10 in 1.8 mi Calm Calm - N/A   Clear
4:58 AM 46.4 °F 44.6 °F 93% 30.10 in 1.8 mi Calm Calm - N/A   Clear
5:16 AM 44.6 °F 44.6 °F 100% 30.10 in 1.0 mi Calm Calm - N/A   Clear
5:35 AM 44.6 °F 44.6 °F 100% 30.11 in 2.5 mi Calm Calm - N/A   Clear
5:36 AM 44.6 °F 44.6 °F 100% 30.11 in 2.0 mi Calm Calm - N/A   Clear
5:55 AM 46.4 °F 44.6 °F 93% 30.12 in 1.8 mi Calm Calm - N/A   Clear
5:56 AM 46.4 °F 44.6 °F 93% 30.12 in 1.8 mi Calm Calm - N/A   Clear
6:19 AM 46.4 °F 46.4 °F 100% 30.14 in 10.0 mi Calm Calm - N/A   Clear
6:37 AM 44.6 °F 42.8 °F 93% 30.15 in 7.0 mi Calm Calm - N/A   Clear
6:55 AM 44.6 °F 42.8 °F 93% 30.16 in 1.5 mi Calm Calm - N/A   Clear
6:56 AM 44.6 °F 42.8 °F 93% 30.16 in 1.5 mi Calm Calm - N/A   Clear
7:15 AM 44.6 °F 42.8 °F 93% 30.17 in 7.0 mi Calm Calm - N/A   Clear
7:16 AM 44.6 °F 44.6 °F 100% 30.17 in 7.0 mi Calm Calm - N/A   Clear
7:35 AM 48.2 °F 46.4 °F 93% 30.17 in 10.0 mi Calm Calm - N/A   Clear
7:40 AM 48.2 °F 48.2 °F 100% 30.17 in 10.0 mi Calm Calm - N/A   Clear
7:58 AM 50.0 °F 48.2 °F 94% 30.17 in 10.0 mi Calm Calm - N/A   Clear
8:16 AM 51.8 °F 51.8 °F 100% 30.17 in 10.0 mi WNW 4.6 mph - N/A   Clear
8:35 AM 55.4 °F 51.8 °F 88% 30.17 in 10.0 mi NW 3.5 mph - N/A   Clear
8:36 AM 55.4 °F 51.8 °F 88% 30.17 in 10.0 mi NW 3.5 mph - N/A   Clear
8:55 AM 57.2 °F 51.8 °F 82% 30.17 in 10.0 mi Calm Calm - N/A   Clear
8:56 AM 57.2 °F 51.8 °F 82% 30.17 in 10.0 mi Calm Calm - N/A   Clear
9:19 AM 60.8 °F 51.8 °F 72% 30.17 in 10.0 mi Calm Calm - N/A   Clear
9:37 AM 62.6 °F 51.8 °F 68% 30.18 in 10.0 mi West 3.5 mph - N/A   Clear
9:55 AM 64.4 °F 51.8 °F 64% 30.18 in 10.0 mi West 3.5 mph - N/A   Clear
10:19 AM 66.2 °F 50.0 °F 56% 30.18 in 10.0 mi NW 4.6 mph - N/A   Clear
10:37 AM 66.2 °F 48.2 °F 52% 30.19 in 10.0 mi West 4.6 mph - N/A   Clear
10:55 AM 68.0 °F 48.2 °F 49% 30.19 in 10.0 mi Calm Calm - N/A   Clear
11:15 AM 69.8 °F 46.4 °F 43% 30.19 in 10.0 mi Calm Calm - N/A   Clear
11:16 AM 69.8 °F 46.4 °F 43% 30.19 in 10.0 mi West 3.5 mph - N/A   Clear
11:35 AM 69.8 °F 46.4 °F 43% 30.19 in 10.0 mi NW 4.6 mph - N/A   Clear
11:40 AM 69.8 °F 46.4 °F 43% 30.19 in 10.0 mi West 6.9 mph - N/A   Clear
11:57 AM 69.8 °F 46.4 °F 43% 30.20 in 10.0 mi WNW 6.9 mph - N/A   Clear
12:15 PM 71.6 °F 46.4 °F 41% 30.20 in 10.0 mi NW 5.8 mph - N/A   Clear
12:16 PM 71.6 °F 46.4 °F 41% 30.20 in 10.0 mi WNW 4.6 mph - N/A   Clear
12:35 PM 69.8 °F 46.4 °F 43% 30.19 in 10.0 mi NW 9.2 mph - N/A   Clear
12:55 PM 71.6 °F 46.4 °F 41% 30.19 in 10.0 mi NW 10.4 mph - N/A   Scattered Clouds
1:18 PM 69.8 °F 44.6 °F 40% 30.18 in 10.0 mi NNW 9.2 mph - N/A   Scattered Clouds
1:35 PM 73.4 °F 44.6 °F 36% 30.19 in 10.0 mi West 11.5 mph - N/A   Clear
1:55 PM 73.4 °F 46.4 °F 38% 30.18 in 10.0 mi WSW 5.8 mph 9.2 mph N/A   Scattered Clouds
2:15 PM 73.4 °F 46.4 °F 38% 30.18 in 10.0 mi West 4.6 mph - N/A   Mostly Cloudy
2:39 PM 73.4 °F 46.4 °F 38% 30.18 in 10.0 mi West 12.7 mph - N/A   Scattered Clouds
2:57 PM 73.4 °F 46.4 °F 38% 30.17 in 10.0 mi WNW 8.1 mph - N/A   Clear
3:15 PM 71.6 °F 44.6 °F 38% 30.18 in 10.0 mi West 10.4 mph - N/A   Clear
3:16 PM 71.6 °F 44.6 °F 38% 30.18 in 10.0 mi West 6.9 mph - N/A   Clear
3:35 PM 73.4 °F 44.6 °F 36% 30.18 in 10.0 mi North 4.6 mph - N/A   Scattered Clouds
3:36 PM 71.6 °F 44.6 °F 38% 30.18 in 10.0 mi North 3.5 mph - N/A   Scattered Clouds
3:55 PM 71.6 °F 44.6 °F 38% 30.18 in 10.0 mi WNW 8.1 mph - N/A   Clear
4:00 PM 71.6 °F 44.6 °F 38% 30.18 in 10.0 mi West 8.1 mph - N/A   Clear
4:18 PM 71.6 °F 46.4 °F 41% 30.18 in 10.0 mi North 4.6 mph - N/A   Mostly Cloudy
4:36 PM 73.4 °F 46.4 °F 38% 30.18 in 10.0 mi NW 8.1 mph - N/A   Scattered Clouds
4:55 PM 71.6 °F 46.4 °F 41% 30.19 in 10.0 mi Calm Calm - N/A   Clear
4:56 PM 71.6 °F 46.4 °F 41% 30.19 in 10.0 mi Calm Calm - N/A   Scattered Clouds
5:15 PM 69.8 °F 46.4 °F 43% 30.19 in 10.0 mi West 4.6 mph - N/A   Clear
5:16 PM 69.8 °F 46.4 °F 43% 30.19 in 10.0 mi West 4.6 mph - N/A   Clear
5:39 PM 69.8 °F 46.4 °F 43% 30.19 in 10.0 mi WNW 4.6 mph - N/A   Clear
5:57 PM 71.6 °F 46.4 °F 41% 30.19 in 10.0 mi NW 4.6 mph - N/A   Clear
6:15 PM 69.8 °F 46.4 °F 43% 30.19 in 10.0 mi Calm Calm - N/A   Clear
6:16 PM 69.8 °F 46.4 °F 43% 30.19 in 10.0 mi WNW 3.5 mph - N/A   Clear
6:35 PM 69.8 °F 46.4 °F 43% 30.19 in 10.0 mi NNW 3.5 mph - N/A   Clear
6:36 PM 69.8 °F 46.4 °F 43% 30.19 in 10.0 mi NNW 3.5 mph - N/A   Clear
6:55 PM 69.8 °F 46.4 °F 43% 30.19 in 10.0 mi Calm Calm - N/A   Clear
7:00 PM 69.8 °F 46.4 °F 43% 30.19 in 10.0 mi Calm Calm - N/A   Clear
7:18 PM 66.2 °F 48.2 °F 52% 30.19 in 10.0 mi Calm Calm - N/A   Clear
7:36 PM 64.4 °F 51.8 °F 64% 30.19 in 10.0 mi Calm Calm - N/A   Clear
7:55 PM 60.8 °F 51.8 °F 72% 30.20 in 10.0 mi Calm Calm - N/A   Clear
7:56 PM 60.8 °F 51.8 °F 72% 30.20 in 10.0 mi Calm Calm - N/A   Clear
8:15 PM 57.2 °F 51.8 °F 82% 30.20 in 10.0 mi Calm Calm - N/A   Clear
8:39 PM 57.2 °F 51.8 °F 82% 30.21 in 10.0 mi Calm Calm - N/A   Clear
8:57 PM 55.4 °F 50.0 °F 82% 30.22 in 10.0 mi Calm Calm - N/A   Clear
9:15 PM 55.4 °F 50.0 °F 82% 30.22 in 10.0 mi Calm Calm - N/A   Clear
9:35 PM 53.6 °F 50.0 °F 88% 30.23 in 10.0 mi Calm Calm - N/A   Clear
9:36 PM 53.6 °F 50.0 °F 88% 30.23 in 10.0 mi Calm Calm - N/A   Clear
9:55 PM 53.6 °F 50.0 °F 88% 30.23 in 10.0 mi Calm Calm - N/A   Clear
10:00 PM 53.6 °F 50.0 °F 88% 30.23 in 10.0 mi Calm Calm - N/A   Clear
10:17 PM 53.6 °F 51.8 °F 94% 30.24 in 10.0 mi Calm Calm - N/A   Clear
10:36 PM 53.6 °F 51.8 °F 94% 30.24 in 10.0 mi Calm Calm - N/A   Clear
10:55 PM 53.6 °F 50.0 °F 88% 30.25 in 10.0 mi Calm Calm - N/A   Clear
10:56 PM 51.8 °F 50.0 °F 94% 30.25 in 10.0 mi Calm Calm - N/A   Clear
11:15 PM 51.8 °F 50.0 °F 94% 30.25 in 10.0 mi Calm Calm - N/A   Clear
11:16 PM 51.8 °F 50.0 °F 94% 30.25 in 10.0 mi Calm Calm - N/A   Clear
11:39 PM 51.8 °F 50.0 °F 94% 30.25 in 10.0 mi Calm Calm - N/A   Clear
11:57 PM 51.8 °F 50.0 °F 94% 30.25 in 10.0 mi Calm Calm - N/A   Clear